Regional Weather Roundup
Issued by NWS

Home | Current Version | Previous Version | Graphics & Text | Print | Product List | Glossary On
Versions: 1 2 3 4 5 6 7 8 9 10 11 12 13 14 15 16 17 18 19 20 21 22 23 24 25 26 27 28 29 30 31 32 33 34 35 36 37 38 39 40 41 42 43 44 45 46 47 48 49 50
000
ASUS44 KMEG 261610
RWRTN
TENNESSEE HOURLY STATE WEATHER ROUNDUP
NATIONAL WEATHER SERVICE MEMPHIS TN
1100 AM CDT SUN APR 26 2015

TNZ002-004-019-021-049-052-054-088>092-261700-
WEST TENNESSEE

CITY           SKY/WX    TMP DP  RH WIND       PRES   REMARKS
MEMPHIS INTL   CLOUDY    64  56  75 N10       29.82S
NWS MEMPHIS      N/A     65 N/A N/A MISG        N/A
JACKSON        CLOUDY    57  51  80 N12       29.84R
DYERSBURG      CLOUDY    55  39  54 N10       29.87S
UNION CITY     CLOUDY    52  32  46 N9        29.86S
PARIS          CLOUDY    48  46  93 VRB6      29.87R
LEXINGTON      CLOUDY    55  52  88 N12       29.82R
SAVANNAH       CLOUDY    63  32  31 VRB6      29.81R
$$

TNZ008-025-027-028-033-062-065-066-261700-
NORTH MIDDLE TENNESSEE

CITY           SKY/WX    TMP DP  RH WIND       PRES   REMARKS
NASHVILLE      CLOUDY    53  49  86 N10       29.83R
CLARKSVILLE    CLOUDY    50  47  89 N10       29.86R
SMYRNA         CLOUDY    54  49  83 N12       29.83R
COOKEVILLE     CLOUDY    52  50  93 VRB7      29.78R
CROSSVILLE     CLOUDY    56  51  84 N9        29.77R
$$

TNZ061-075-076-078-094-096-097-261700-
SOUTH MIDDLE TENNESSEE

CITY           SKY/WX    TMP DP  RH WIND       PRES   REMARKS
FAYETTEVILLE   CLOUDY    64  57  77 W6        29.76S
TULLAHOMA      CLOUDY    57  54  88 N9        29.79R
WINCHESTER     CLOUDY    63  57  82 N8        29.77R
MCMINNVILLE    CLOUDY    57  55  94 N10       29.79R
COLUMBIA       CLOUDY    59  32  36 N8        29.79R
SHELBYVILLE    CLOUDY    61  55  82 N10       29.80R
$$

TNZ017-018-042-046-047-261700-
NORTHEAST TENNESSEE

CITY           SKY/WX    TMP DP  RH WIND       PRES   REMARKS
TRI CITIES     CLOUDY    61  53  75 N9        29.69R
ELIZABETHTON   CLOUDY    57  52  82 CALM      29.67R
$$

TNZ012-013-036-069-073-074-261700-
CENTRAL EAST TENNESSEE

CITY           SKY/WX    TMP DP  RH WIND       PRES   REMARKS
KNOXVILLE      PTSUNNY   67  57  70 W13       29.69S
OAK RIDGE      CLOUDY    65  55  70 NW8       29.72R
GATLINBURG     CLOUDY    66  57  72 W8        29.68S
MORRISTOWN     MOSUNNY   63  55  77 NW10      29.70R
$$

TNZ083-085-099-261700-
SOUTHEAST TENNESSEE

CITY           SKY/WX    TMP DP  RH WIND       PRES   REMARKS
CHATTANOOGA    CLOUDY    71  57  61 W7        29.73R
$$

SKY/WX REPORTED AS FAIR MEANS FEW OR NO CLOUDS BELOW
12 THOUSAND FEET.



USA.gov is the U.S. government's official web portal to all federal, state and local government web resources and services.